| time (UTC) | temp C | wind direction | speed KPH | gust KPH | rain 1hr cm | rain 24hr cm | rain mn cm | humidity % | barometer mb |
| 20260503013100 | 10 | 132 | 1.6 | 11.3 | 0.00 | 0.00 | 0.00 | 55 | 1007.8 |
| 20260503011559 | 10 | 183 | 3.2 | 11.3 | 0.00 | 0.00 | 0.00 | 54 | 1007.8 |
| 20260503010103 | 11 | 137 | 4.8 | 11.3 | 0.00 | 0.00 | 0.00 | 52 | 1008.1 |
| 20260503004559 | 11 | 215 | 3.2 | 11.3 | 0.00 | 0.00 | 0.00 | 51 | 1007.9 |
| 20260503003106 | 11 | 298 | 1.6 | 16.1 | 0.00 | 0.00 | 0.00 | 51 | 1008.0 |
| 20260503001612 | 10 | 203 | 3.2 | 12.9 | 0.00 | 0.00 | 0.00 | 52 | 1008.0 |
| 20260503000059 | 10 | 133 | 4.8 | 14.5 | 0.00 | 0.00 | 0.00 | 52 | 1008.2 |
| 20260502234557 | 11 | 250 | 3.2 | 16.1 | 0.00 | 0.00 | 0.00 | 51 | 1008.1 |
| 20260502233058 | 11 | 280 | 3.2 | 17.7 | 0.00 | 0.00 | 0.00 | 52 | 1008.2 |
| 20260502231555 | 11 | 202 | 8.0 | 22.5 | 0.00 | 0.00 | 0.00 | 51 | 1008.4 |
| 20260502230055 | 11 | 210 | 8.0 | 19.3 | 0.00 | 0.00 | 0.00 | 47 | 1008.5 |
| 20260502224553 | 11 | 273 | 9.7 | 24.1 | 0.00 | 0.00 | 0.00 | 47 | 1008.4 |
| 20260502223052 | 12 | 270 | 3.2 | 12.9 | 0.00 | 0.00 | 0.00 | 47 | 1008.7 |
| 20260502221551 | 11 | 59 | 3.2 | 33.8 | 0.00 | 0.00 | 0.00 | 48 | 1008.8 |
| 20260502220051 | 12 | 302 | 6.4 | 27.4 | 0.00 | 0.00 | 0.00 | 44 | 1009.1 |
| 20260502214600 | 13 | 221 | 4.8 | 27.4 | 0.00 | 0.00 | 0.00 | 41 | 1008.9 |
| 20260502213050 | 14 | 255 | 4.8 | 16.1 | 0.00 | 0.00 | 0.00 | 38 | 1009.1 |
| 20260502211547 | 14 | 240 | 11.3 | 30.6 | 0.00 | 0.00 | 0.00 | 37 | 1009.3 |
| 20260502210047 | 13 | 267 | 9.7 | 24.1 | 0.00 | 0.00 | 0.00 | 38 | 1009.4 |
| 20260502204546 | 13 | 157 | 3.2 | 19.3 | 0.00 | 0.00 | 0.00 | 38 | 1009.4 |
| 20260502203045 | 14 | 331 | 4.8 | 17.7 | 0.00 | 0.00 | 0.00 | 38 | 1009.7 |
| 20260502201543 | 13 | 119 | 4.8 | 20.9 | 0.00 | 0.00 | 0.00 | 38 | 1009.7 |
| 20260502200042 | 12 | 290 | 4.8 | 14.5 | 0.00 | 0.00 | 0.00 | 40 | 1009.9 |
| 20260502194542 | 12 | 298 | 4.8 | 19.3 | 0.00 | 0.00 | 0.00 | 39 | 1010.1 |
| 20260502193043 | 12 | 195 | 3.2 | 29.0 | 0.00 | 0.00 | 0.00 | 39 | 1010.1 |
| 20260502191545 | 12 | 277 | 8.0 | 29.0 | 0.00 | 0.00 | 0.00 | 38 | 1010.2 |
| 20260502190044 | 13 | 269 | 1.6 | 11.3 | 0.00 | 0.00 | 0.00 | 37 | 1010.1 |
| 20260502184556 | 13 | 248 | 1.6 | 16.1 | 0.00 | 0.00 | 0.00 | 38 | 1010.1 |
| 20260502183040 | 13 | 164 | 4.8 | 16.1 | 0.00 | 0.00 | 0.00 | 34 | 1010.2 |
| 20260502181538 | 13 | 248 | 1.6 | 12.9 | 0.00 | 0.00 | 0.00 | 34 | 1010.3 |
| 20260502163047 | 13 | 78 | 3.2 | 8.0 | 0.00 | 0.00 | 0.00 | 35 | 1010.7 |
| 20260502161537 | 13 | 179 | 4.8 | 12.9 | 0.00 | 0.00 | 0.00 | 36 | 1010.7 |
| 20260502160132 | 13 | 211 | 0.0 | 14.5 | 0.00 | 0.00 | 0.00 | 38 | 1010.6 |
| 20260502151526 | 11 | 340 | 1.6 | 4.8 | 0.00 | 0.00 | 0.00 | 43 | 1010.5 |
| 20260502123106 | 3 | 57 | 0.0 | 4.8 | 0.00 | 0.00 | 0.00 | 74 | 1010.4 |
| 20260502121559 | 3 | 275 | 0.0 | 3.2 | 0.00 | 0.00 | 0.00 | 77 | 1010.5 |
| 20260502114600 | 4 | 250 | 0.0 | 0.0 | 0.00 | 0.00 | 0.00 | 72 | 1010.8 |
| 20260502113056 | 5 | 279 | 0.0 | 0.0 | 0.00 | 0.00 | 0.00 | 73 | 1010.8 |
| 20260502111556 | 6 | 280 | 0.0 | 1.6 | 0.00 | 0.00 | 0.00 | 67 | 1010.7 |
| 20260502110100 | 6 | 205 | 0.0 | 11.3 | 0.00 | 0.00 | 0.00 | 67 | 1010.8 |
| 20260502104556 | 7 | 277 | 0.0 | 16.1 | 0.00 | 0.00 | 0.00 | 69 | 1010.9 |
| 20260502103057 | 6 | 257 | 4.8 | 14.5 | 0.00 | 0.00 | 0.00 | 70 | 1011.0 |
| 20260502101613 | 5 | 277 | 1.6 | 8.0 | 0.00 | 0.00 | 0.00 | 75 | 1011.1 |
| 20260502100112 | 4 | 209 | 0.0 | 6.4 | 0.00 | 0.00 | 0.00 | 80 | 1011.1 |
| 20260502071527 | 7 | 299 | 0.0 | 3.2 | 0.00 | 0.00 | 0.00 | 68 | 1012.3 |
| 20260502070033 | 6 | 289 | 0.0 | 3.2 | 0.00 | 0.00 | 0.00 | 71 | 1012.4 |
| 20260502064527 | 7 | 277 | 0.0 | 8.0 | 0.00 | 0.00 | 0.00 | 70 | 1012.4 |
| 20260502063030 | 7 | 270 | 1.6 | 14.5 | 0.00 | 0.00 | 0.00 | 67 | 1012.4 |
| 20260502061524 | 7 | 282 | 4.8 | 14.5 | 0.00 | 0.00 | 0.00 | 70 | 1012.4 |
| 20260502060022 | 7 | 259 | 8.0 | 20.9 | 0.00 | 0.00 | 0.00 | 73 | 1012.5 |
| 20260502054523 | 7 | 260 | 0.0 | 17.7 | 0.00 | 0.00 | 0.00 | 72 | 1012.6 |
| 20260502053023 | 7 | 263 | 3.2 | 25.7 | 0.00 | 0.00 | 0.00 | 71 | 1012.6 |
| 20260502051528 | 8 | 282 | 9.7 | 19.3 | 0.00 | 0.00 | 0.00 | 71 | 1012.7 |
| 20260502050022 | 8 | 280 | 4.8 | 17.7 | 0.00 | 0.00 | 0.00 | 71 | 1012.8 |
| 20260502044522 | 8 | 280 | 0.0 | 12.9 | 0.00 | 0.00 | 0.00 | 71 | 1012.8 |
| 20260502043022 | 8 | 265 | 3.2 | 16.1 | 0.00 | 0.00 | 0.00 | 72 | 1012.8 |
| 20260502041522 | 8 | 297 | 4.8 | 14.5 | 0.00 | 0.00 | 0.00 | 72 | 1012.6 |
| 20260502040033 | 8 | 218 | 3.2 | 11.3 | 0.00 | 0.00 | 0.00 | 71 | 1012.4 |
| 20260502034521 | 8 | 296 | 3.2 | 19.3 | 0.00 | 0.00 | 0.00 | 71 | 1012.2 |
| 20260502033020 | 8 | 240 | 1.6 | 17.7 | 0.00 | 0.00 | 0.00 | 71 | 1012.1 |
| 20260502031522 | 8 | 284 | 8.0 | 19.3 | 0.00 | 0.00 | 0.00 | 71 | 1011.8 |
| 20260502030020 | 9 | 292 | 1.6 | 16.1 | 0.00 | 0.00 | 0.00 | 70 | 1011.7 |
| 20260502024535 | 9 | 227 | 4.8 | 17.7 | 0.00 | 0.00 | 0.00 | 68 | 1011.7 |
| 20260502023020 | 10 | 250 | 3.2 | 24.1 | 0.00 | 0.00 | 0.00 | 68 | 1011.4 |
| 20260502021518 | 10 | 224 | 4.8 | 19.3 | 0.00 | 0.00 | 0.00 | 68 | 1011.4 |
| 20260502020018 | 10 | 267 | 4.8 | 19.3 | 0.00 | 0.00 | 0.00 | 66 | 1011.5 |
| 20260502014526 | 11 | 253 | 1.6 | 14.5 | 0.00 | 0.00 | 0.00 | 64 | 1011.6 |